Find Starlink 32472

NORAD ID: 61846 Int'l Des: 2024-202 Owner: SPXS Country: US Constellation: starlink operational
LEOCIRCULAR

当前视图

正在加载3D地球...

About Starlink 32472

Starlink 32472 (NORAD 61846) is a starlink constellation satellite (v2 mini) launched Nov 7, 2024 by SPXS of US. It operates in LEO, CIRCULAR orbit with a mass of 730.00 kg.

关于 Starlink 32472

正在加载描述...

即将过境

Passes for default location (London). Set your location on the main map for personalized predictions.

高度历史

Loading altitude history...

两行轨道根数

1 61846U 24202B 26170.96879993 -.00001055 00000-0 -28827-4 0 9995
2 61846 42.9998 9.6704 0000848 320.2193 39.8596 15.27582694 91092
Epoch: Jun 19, 2026 • Age: 27 hours

当前状态

高度 483.0 km
速度 7.63 km/s
星下点 26.92°N, 95.21°E
发射日期 Nov 7, 2024
运行时间 1.6 years
类型 internet

技术详情

分类 Payload
质量 730.00 kg
干质量 700.00 kg
总质量 730.00 kg
长度 0.30 m
直径 4.10 m
跨度 29.00 m
形状 Box + pan
制造商 SPXS
平台类型 Starlink V2M
阶段状态 In Orbit
所有者/国家 SPXS/US

Most Searched